www.pogodaiklimat.ru

АРХИВ ПОГОДЫ в Цинциннати

Время (UTC), дата Ветер
(напр.,м/с)
 
Видим.   Явления Облачность Т
(С)
Тd
(С)
f
(%)
Тe
(С)
Тes
(С)
Комфортность

P
(гПа)

Po
(гПа)
Тmin
(С)
Tmax
(С)
R
(мм)
SD
(см)
20:52 25.05 СЗ  6
{11} 
11 км  слабый дождь  8/8 1800 м
[средняя верхняя] 
+25.0  +18.9  69  +30  +30  душно  1017.0  985.3         
21:52 25.05 З  16 км    8/2 1800 м
[средняя верхняя] 
+25.6  +20.6  74  +32  +35  очень
душно 
1016.8  985.3         
22:52 25.05   16 км    8/0 2700 м
[средняя верхняя] 
+25.0  +21.1  79  +32  +34  очень
душно 
1016.7  985.0  +24.4  +30.6  0.8   
23:52 25.05 Ю  16 км    8/0 4500 м
[средняя верхняя] 
+23.3  +21.1  87  +31  +31  очень
душно 
1016.6  985.0         
00:52 26.05 Ю  16 км    8/0 7500 м
[верхняя] 
+23.3  +18.3  73  +29  +29  душно  1016.4  984.6         
01:52 26.05 Ю  16 км    8/0 7500 м
[верхняя] 
+22.8  +18.3  76  +28  +28  душно  1016.7  985.0         
02:52 26.05 Ю  16 км    5/0 7500 м
[верхняя] 
+22.8  +18.3  76  +28  +28  душно  1016.5  985.0         
03:52 26.05 ЮЗ  16 км    ясно  +22.8  +18.3  76  +28  +28  душно  1016.7  985.3         
04:52 26.05 ЮЗ  16 км    ясно  +21.1  +17.8  81  +25  +25  комфорт  1016.6  985.0  +21.1  +25.6     
05:52 26.05 ЮЗ  16 км    2/2 1320 м  +21.7  +17.8  78  +26  +26  душно  1016.5  985.0         
06:52 26.05 ЮЗ  16 км    5/2 1320 м
[верхняя] 
+21.1  +17.8  81  +25  +25  комфорт  1016.1  984.6         
07:52 26.05 ЮЗ  16 км    ясно  +21.1  +17.8  81  +25  +25  комфорт  1016.3  985.0         
08:52 26.05 ЮЗ  16 км    5/0 5100 м
[средняя] 
+21.1  +17.8  81  +25  +25  комфорт  1016.9  985.3         
09:52 26.05 ЮЗ  16 км    8/0 2400 м
[средняя верхняя] 
+21.7  +17.8  78  +26  +26  душно  1017.0  985.3         
10:52 26.05 ЮЗ  16 км    8/0 2250 м
[средняя] 
+22.8  +18.3  76  +28  +29  душно  1017.8  986.0  +20.6  +22.8     
11:52 26.05 З  16 км    8/0 2700 м
[средняя верхняя] 
+24.4  +18.3  69  +29  +30  душно  1018.0  986.3         
12:52 26.05 ЮЗ  16 км    8/0 3300 м
[средняя верхняя] 
+26.1  +18.9  65  +31  +33  очень
душно 
1017.5  986.0         
13:52 26.05 Ю  16 км    8/0 3900 м
[средняя верхняя] 
+27.2  +20.0  65  +33  +37  очень
душно 
1016.9  985.3         
14:52 26.05 ЮЗ  16 км    5/2 1800 м
[средняя верхняя] 
+28.9  +19.4  57  +35  +39  очень
душно 
1016.8  985.3         
15:52 26.05 ЮЗ  16 км    8/5 1260 м
[средняя верхняя] 
+29.4  +18.3  51  +34  +39  очень
душно 
1016.4  985.0         
16:52 26.05 З  16 км    8/8 1350 м
[средняя верхняя] 
+29.4  +18.9  53  +35  +37  очень
душно 
1015.8  984.3  +22.8  +30.0     
17:52 26.05 З  16 км    8/5 780 м
[средняя] 
+30.0  +18.9  51  +35  +38  очень
душно 
1015.1  983.7         
18:42 26.05 ЮЗ  16 км  гроза  8/5 1470 м
[средняя] 
+28.9  +18.9  55  +34  +37  очень
душно 
  983.7         
18:52 26.05 ЮЗ  16 км  гроза  8/0 2100 м
[средняя] 
+27.8  +18.9  58  +33  +37  очень
душно 
1015.2  983.7         
19:02 26.05 Ю  16 км  слабый дождь  8/0 2100 м
[средняя] 
+24.4  +18.3  69  +29  +31  душно             
19:13 26.05 ЮЗ  16 км  гроза со слабым дождем  8/0 2100 м
[средняя] 
+25.0  +19.4  71  +30  +35  душно             
19:30 26.05 ЮЗ  10
{13} 
2 км  гроза с сильным дождем  8/5 1500 м
[средняя] 
+21.7  +18.3  81  +26  +26  душно             
19:38 26.05 ЮЗ  7
{17} 
2 км  гроза с сильным дождем, дымка  8/5 1500 м
[средняя] 
+20.0  +18.3  90  +23  +23  комфорт             
19:52 26.05 Ю  11 км  слабый дождь  8/5 930 м
[средняя] 
+20.6  +18.3  87  +24  +27  комфорт  1016.5        8.6   
19:59 26.05 Ю  16 км  слабый дождь  10/5 870 м
[средняя] 
+20.6  +18.9  90  +25  +27  комфорт    984.6         
20:52 26.05 ЮЗ  16 км    8/0 3300 м
[средняя] 
+22.2  +18.9  82  +28  +31  душно  1015.9  984.3         
21:52 26.05 ЮЗ  16 км    8/0 5100 м
[средняя] 
+22.8  +18.3  76  +28  +30  душно  1015.3  983.7         
22:52 26.05 ЮЗ  16 км    5/2 390 м
[средняя] 
+22.8  +19.4  81  +29  +30  очень
душно 
1015.5  984.0  +20.0  +30.0  8.6   
23:52 26.05 ЮЗ  16 км    5/2 1650 м
[средняя] 
+21.7  +19.4  87  +27  +27  душно  1015.3  983.7         
00:52 27.05 ЮЗ  14 км    5/2 1500 м
[средняя] 
+20.6  +19.4  93  +26  +26  душно  1016.1  984.3         
01:24 27.05   13 км    8/8 840 м
[средняя] 
+21.1  +19.4  90  +26  +26  душно    984.6         
01:39 27.05   13 км  слабый дождь  10/5 840 м
[средняя] 
+21.1  +19.4  90  +26  +26  душно    985.0         
01:52 27.05 З  14 км    10/2 870 м
[средняя] 
+21.7  +19.4  87  +27  +27  душно  1016.5  985.0         
02:52 27.05 СЗ  16 км    8/5 1950 м
[средняя] 
+21.1  +19.4  90  +26  +26  душно  1016.7  985.0         
03:52 27.05   16 км    2/0 2850 м
[средняя] 
+20.6  +18.9  90  +24  +24  комфорт  1016.7  985.3         
04:52 27.05   11 км    2/0 2700 м
[средняя] 
+19.4  +18.3  93  +21  +21  комфорт  1016.4  985.0  +19.4  +22.8     
05:52 27.05 СЗ  11 км    ясно  +20.0  +18.3  90  +24  +24  комфорт  1016.2  984.6         
06:52 27.05   14 км    8/0 7500 м
[верхняя] 
+18.9  +17.2  90  +20  +20    1016.1  984.6         
07:52 27.05 С  16 км    10/0 7500 м
[верхняя] 
+18.9  +17.2  90  +21  +21  комфорт  1016.6  984.6         
08:52 27.05   16 км    5/0 7500 м
[верхняя] 
+18.3  +16.1  87  +19  +19    1016.8  985.0         
09:52 27.05 С  16 км    8/0 3900 м
[средняя верхняя] 
+18.3  +16.1  87  +20  +20    1017.4  985.6         
10:52 27.05 СВ  16 км    5/2 1800 м
[средняя верхняя] 
+20.6  +16.1  75  +24  +24  комфорт  1017.3  985.6  +18.3  +20.6     
11:52 27.05 СВ  16 км    8/0 2400 м
[средняя верхняя] 
+21.1  +16.7  76  +25  +26  комфорт  1017.5  985.6         

 

Местоположение метеостанции Cincinnati / Northern Kentucky International Airport: широта 39.0431 долгота -84.6717 высота над уровнем моря 273 м.

В архиве по умолчанию представлена погода в Цинциннати за последние 1-2 суток. Обновление информации о фактической погоде в базе происходит ежечасно! Архивные данные за месяц целиком и за предыдущие месяцы Вы можете получить, выбрав интересующий диапазон дат из раскрывающегося списка и нажав кнопку "Ввод!".

Внимание! Архив погоды МЕТАР в базе сайта в настоящее время начинается c 1 января 2011 г. Нет смысла пытаться выбрать более раннюю дату.

Внимание! Время в таблицах - всемирное. Для получения местного времени необходимо прибавить поправку, которая в Цинциннати равна -5 ч.

Ветер - указаны скорость ветра в м/с и направление, откуда дует ветер: С - северный, СВ - северо-восточный, В - восточный, ЮВ - юго-восточный, Ю - южный, ЮЗ - юго-западный, З - западный, СЗ - северо-западный.
Видимость - горизонтальная дальность видимости в метрах или километрах. При видимости от 1 до 10 км при отсутствии осадков обычно наблюдается дымка, при ухудшении видимости до 1 км и менее - туман. В сухую погоду видимость может ухудшаться дымом, пылью или мглою.
Атмосферные явления - указаны явления, наблюдавшиеся в указанный момент времени.
Облачность - указаны через наклонную черту верхняя и нижняя облачность в баллах и высота нижней границы облаков в метрах. Внимание: облачность, как и прочие метеорологические величины в США измеряются автоматическими метеостанциями. Указанные значения в баллах носят условный характер и показывают процент времени, в течение которого, в среднем, лазерный луч высотомера отражался от облаков обратно.
T - Температура воздуха - температура, измеренная на высоте 2 м над землей.
Td - Температура точки росы - температура, при понижении до которой содержащийся в воздухе водяной пар достигнет насыщения.
f - Относительная влажность воздуха - влажноcть воздуха, измеренная на высоте 2 м над землей.
Te - Эффективная температура - температура, которую ощущает одетый по сезону человек в тени. Характеристика душности погоды. При расчете учитывается влияние влажности воздуха и скорости ветра на теплоощущения человека.
Tes - Эффективная температура на солнце - температура, которую ощущает человек, с поправкой на солнечный нагрев. Характеристика знойности погоды. Зависит от высоты солнца над горизонтом, облачности и скорости ветра. Ночью, в пасмурную погоду, а также при ветре 12 м/с и более поправка равна нулю.
P - Атмосферное давление - приведенное к уровню моря атмосферное давление.
Po - Атмосферное давление - измеренное на уровне метеостанции атмосферное давление.
Tmin - Минимальная температура - минимум температуры воздуха на высоте 2 м над землей.
Tmax - Максимальная температура - максимум температуры воздуха на высоте 2 м над землей.
R - Количество осадков - Количество выпавших осадков за 3 или 6 часов, мм.
SD - Снежный покров - Высота снежного покрова, см.